Melilla, Spain

4:12 PM CEST on May 29, 2017 (GMT +0200)
Melilla

Weather History for GEML - February, 2013

Change the Weather History Date:

Monday, February 11, 2013

  Actual Average Record
Temperature  
Mean Temperature 56 °F -  
Max Temperature 58 °F 64 °F 73 °F (2002)
Min Temperature 53 °F 52 °F 48 °F (1997)
Degree Days  
Heating Degree Days 10    
Growing Degree Days 6 (Base 50)    
Moisture  
Dew Point 43 °F    
Average Humidity 62    
Maximum Humidity 88    
Minimum Humidity 19    
Precipitation  
Precipitation 0.12 in 0.07 in - ()
Sea Level Pressure  
Sea Level Pressure 30.00 in    
Wind  
Wind Speed 14 mph ()    
Max Wind Speed 26 mph    
Max Gust Speed 51 mph    
Visibility 6.7 miles    
Events Rain    
Averages and records for this station are not official NWS values.
T = Trace of Precipitation, MM = Missing Value Source: Averaged Metar Reports

Daily Weather History Graph

Daily Weather History Graph

Search for Another Location

Airport or City:

Trip Planner

Search our weather history database for the weather conditions in past years. The results will help you decide how hot, cold, wet, or windy it might be!

Date:

Astronomy

Feb. 11, 2013 Rise Set
Actual Time 8:02 AM CET 6:50 PM CET
Civil Twilight 7:36 AM CET 7:16 PM CET
Nautical Twilight 7:06 AM CET 7:46 PM CET
Astronomical Twilight 6:36 AM CET 8:16 PM CET
Moon 8:23 AM CET (2/11) 8:25 PM CET (2/11)
Length of Visible Light 11h 40m
Length of Day
10h 48m
New Moon, 2% of the Moon is Illuminated
Feb 11
New Moon
Feb 17
First Quarter
Feb 25
Full
Mar 4
Last Quarter
Mar 11
New

Hourly Weather History & Observations

Time (CET) Temp. Dew Point Humidity Pressure Visibility Wind Dir Wind Speed Gust Speed Precip Events Conditions
6:00 AM 57.2 °F 37.4 °F 48% 29.98 in 6.2 mi SW 4.6 mph - N/A   Partly Cloudy
6:30 AM 59.0 °F 30.2 °F 34% 29.95 in 6.2 mi SW 6.9 mph - N/A   Partly Cloudy
7:00 AM 59 °F 28 °F 19% 29.96 in 19 mi SW 8.1 mph - -   Scattered Clouds
7:00 AM 59.0 °F 28.4 °F 31% 29.95 in 6.2 mi SW 10.4 mph - N/A   Partly Cloudy
7:30 AM 59.0 °F 28.4 °F 31% 29.95 in 6.2 mi WSW 8.1 mph - N/A   Partly Cloudy
8:00 AM 57.2 °F 48.2 °F 72% 29.98 in 6.2 mi West 13.8 mph - N/A   Mostly Cloudy
8:30 AM 55.4 °F 50.0 °F 82% 29.98 in 6.2 mi West 11.5 mph 23.0 mph N/A   Scattered Clouds
9:00 AM 57.2 °F 50.0 °F 77% 29.98 in 6.2 mi West 12.7 mph 28.8 mph N/A Rain Light Rain
9:30 AM 55.4 °F 51.8 °F 88% 29.98 in 6.2 mi West 18.4 mph 34.5 mph N/A Rain Light Rain
10:00 AM 55.4 °F 51.8 °F 88% 30.01 in 3.1 mi West 18.4 mph 34.5 mph N/A Rain Rain
10:16 AM 53.6 °F 50.0 °F 88% 30.01 in 1.6 mi West 19.6 mph 33.4 mph N/A Rain Rain
10:30 AM 53.6 °F 50.0 °F 88% 30.01 in 2.2 mi West 18.4 mph 34.5 mph N/A Rain Rain
11:00 AM 53.6 °F 50.0 °F 88% 30.01 in 2.2 mi West 19.6 mph 36.8 mph N/A Rain Rain
11:30 AM 55.4 °F 48.2 °F 77% 30.01 in 5.6 mi West 19.6 mph 34.5 mph N/A Rain Light Rain
12:00 PM 55.4 °F 44.6 °F 67% 30.01 in 6.2 mi West 24.2 mph 41.4 mph N/A   Mostly Cloudy
1:00 PM 55 °F 44 °F 58% 30.02 in 12 mi West 21.9 mph - - Rain Light Rain
1:00 PM 55.4 °F 44.6 °F 67% 30.01 in 6.2 mi West 20.7 mph 38.0 mph N/A Rain Light Rain
1:30 PM 55.4 °F 42.8 °F 63% 30.01 in 6.2 mi West 23.0 mph 42.6 mph N/A Rain Light Rain
2:00 PM 55.4 °F 42.8 °F 63% 30.01 in 6.2 mi West 23.0 mph 38.0 mph N/A Rain Light Rain
2:30 PM 55.4 °F 42.8 °F 63% 29.98 in 6.2 mi West 23.0 mph 42.6 mph N/A   Partly Cloudy
3:00 PM 57.2 °F 42.8 °F 59% 29.98 in 6.2 mi West 23.0 mph 40.3 mph N/A   Scattered Clouds
3:30 PM 55.4 °F 41.0 °F 58% 29.98 in 6.2 mi West 23.0 mph 35.7 mph N/A   Scattered Clouds
4:00 PM 55.4 °F 42.8 °F 63% 29.98 in 6.2 mi WNW 26.5 mph 50.6 mph N/A   Scattered Clouds
4:30 PM 55.4 °F 41.0 °F 58% 30.01 in 6.2 mi West 20.7 mph 38.0 mph N/A   Scattered Clouds
5:00 PM 55.4 °F 41.0 °F 58% 30.01 in 6.2 mi West 21.9 mph 34.5 mph N/A   Scattered Clouds
5:30 PM 55.4 °F 41.0 °F 58% 30.01 in 6.2 mi West 20.7 mph 34.5 mph N/A   Scattered Clouds
6:00 PM 55.4 °F 42.8 °F 63% 30.01 in 6.2 mi West 20.7 mph 39.1 mph N/A   Partly Cloudy
6:30 PM 55.4 °F 42.8 °F 63% 30.01 in 6.2 mi West 21.9 mph 42.6 mph N/A   Scattered Clouds
7:00 PM 55 °F 41 °F 47% 30.03 in 19 mi West 24.2 mph - -   Partly Cloudy
7:00 PM 55.4 °F 41.0 °F 58% 30.01 in 6.2 mi West 24.2 mph 39.1 mph N/A   Scattered Clouds
7:30 PM 55.4 °F 41.0 °F 58% 30.04 in 6.2 mi West 21.9 mph 34.5 mph N/A   Scattered Clouds